| time (UTC) | temp F | wind direction | speed knots | gust knots | rain 1hr in | rain 24hr in | rain mn in | humidity % | barometer mb |
| 20260509005535 | 71 | 199 | 4.3 | 9.6 | 0.00 | 0.00 | 0.00 | 17 | 1022.0 |
| 20260509005030 | 72 | 242 | 4.3 | 9.6 | 0.00 | 0.00 | 0.00 | 17 | 1022.0 |
| 20260509004523 | 72 | 216 | 3.5 | 9.6 | 0.00 | 0.00 | 0.00 | 17 | 1022.1 |
| 20260509004017 | 72 | 259 | 3.5 | 8.7 | 0.00 | 0.00 | 0.00 | 17 | 1022.1 |
| 20260509003511 | 72 | 236 | 4.3 | 8.7 | 0.00 | 0.00 | 0.00 | 17 | 1022.1 |
| 20260509003006 | 72 | 242 | 3.5 | 7.0 | 0.00 | 0.00 | 0.00 | 18 | 1022.1 |
| 20260509002719 | 72 | 232 | 2.6 | 6.1 | 0.00 | 0.00 | 0.00 | 17 | 1022.1 |
| 20260509001953 | 72 | 263 | 2.6 | 6.1 | 0.00 | 0.00 | 0.00 | 17 | 1022.1 |
| 20260509001448 | 73 | 252 | 1.7 | 6.1 | 0.00 | 0.00 | 0.00 | 17 | 1022.3 |
| 20260509000942 | 73 | 255 | 1.7 | 3.5 | 0.00 | 0.00 | 0.00 | 17 | 1022.1 |
| 20260509000436 | 73 | 192 | 1.7 | 6.1 | 0.00 | 0.00 | 0.00 | 17 | 1022.3 |
| 20260508235930 | 73 | 251 | 2.6 | 6.1 | 0.00 | 0.00 | 0.00 | 16 | 1022.3 |
| 20260508235424 | 74 | 250 | 2.6 | 7.0 | 0.00 | 0.00 | 0.00 | 16 | 1022.3 |
| 20260508234918 | 74 | 236 | 4.3 | 8.7 | 0.00 | 0.00 | 0.00 | 16 | 1022.3 |
| 20260508234412 | 75 | 273 | 5.2 | 10.4 | 0.00 | 0.00 | 0.00 | 15 | 1022.3 |
| 20260508233906 | 76 | 236 | 3.5 | 10.4 | 0.00 | 0.00 | 0.00 | 15 | 1022.3 |
| 20260508233400 | 77 | 248 | 3.5 | 11.3 | 0.00 | 0.00 | 0.00 | 15 | 1022.3 |
| 20260508232854 | 77 | 263 | 5.2 | 11.3 | 0.00 | 0.00 | 0.00 | 14 | 1022.1 |
| 20260508232348 | 77 | 25 | 5.2 | 10.4 | 0.00 | 0.00 | 0.00 | 15 | 1022.1 |
| 20260508231842 | 78 | 305 | 4.3 | 10.4 | 0.00 | 0.00 | 0.00 | 14 | 1022.3 |
| 20260508231813 | 78 | 9 | 4.3 | 11.3 | 0.00 | 0.00 | 0.00 | 14 | 1022.1 |
| 20260508231320 | 78 | 325 | 5.2 | 13.9 | 0.00 | 0.00 | 0.00 | 15 | 1022.3 |
| 20260508230323 | 78 | 40 | 5.2 | 13.9 | 0.00 | 0.00 | 0.00 | 14 | 1022.1 |
| 20260508225817 | 78 | 344 | 4.3 | 14.8 | 0.00 | 0.00 | 0.00 | 14 | 1022.1 |
| 20260508225312 | 78 | 28 | 3.5 | 14.8 | 0.00 | 0.00 | 0.00 | 14 | 1022.1 |
| 20260508224806 | 78 | 193 | 2.6 | 9.6 | 0.00 | 0.00 | 0.00 | 14 | 1022.1 |
| 20260508224300 | 78 | 328 | 2.6 | 7.8 | 0.00 | 0.00 | 0.00 | 14 | 1022.3 |
| 20260508224022 | 78 | 331 | 2.6 | 11.3 | 0.00 | 0.00 | 0.00 | 15 | 1022.3 |
| 20260508223248 | 78 | 254 | 4.3 | 11.3 | 0.00 | 0.00 | 0.00 | 14 | 1022.3 |
| 20260508222742 | 78 | 254 | 4.3 | 13.0 | 0.00 | 0.00 | 0.00 | 14 | 1022.4 |
| 20260508222503 | 78 | 337 | 6.1 | 13.9 | 0.00 | 0.00 | 0.00 | 14 | 1022.4 |
| 20260508221734 | 78 | 43 | 6.1 | 13.9 | 0.00 | 0.00 | 0.00 | 14 | 1022.4 |
| 20260508221234 | 77 | 5 | 6.1 | 13.9 | 0.00 | 0.00 | 0.00 | 15 | 1022.4 |
| 20260508220734 | 77 | 286 | 6.1 | 13.0 | 0.00 | 0.00 | 0.00 | 14 | 1022.4 |
| 20260508220234 | 78 | 19 | 7.0 | 12.2 | 0.00 | 0.00 | 0.00 | 15 | 1022.4 |
| 20260508215734 | 78 | 11 | 7.0 | 15.6 | 0.00 | 0.00 | 0.00 | 14 | 1022.4 |
| 20260508215236 | 78 | 5 | 6.1 | 15.6 | 0.00 | 0.00 | 0.00 | 14 | 1022.5 |
| 20260508214951 | 78 | 0 | 7.0 | 15.6 | 0.00 | 0.00 | 0.00 | 14 | 1022.6 |
| 20260508214233 | 78 | 5 | 5.2 | 15.6 | 0.00 | 0.00 | 0.00 | 14 | 1022.6 |
| 20260508213734 | 77 | 10 | 4.3 | 12.2 | 0.00 | 0.00 | 0.00 | 14 | 1022.8 |
| 20260508213234 | 77 | 0 | 4.3 | 10.4 | 0.00 | 0.00 | 0.00 | 15 | 1022.8 |
| 20260508212736 | 77 | 32 | 4.3 | 10.4 | 0.00 | 0.00 | 0.00 | 15 | 1022.9 |
| 20260508212234 | 76 | 329 | 3.5 | 7.8 | 0.00 | 0.00 | 0.00 | 14 | 1022.9 |
| 20260508211731 | 77 | 265 | 3.5 | 8.7 | 0.00 | 0.00 | 0.00 | 14 | 1023.0 |
| 20260508211230 | 77 | 271 | 3.5 | 11.3 | 0.00 | 0.00 | 0.00 | 14 | 1023.0 |
| 20260508210730 | 76 | 355 | 5.2 | 11.3 | 0.00 | 0.00 | 0.00 | 14 | 1023.0 |
| 20260508210230 | 76 | 291 | 5.2 | 13.9 | 0.00 | 0.00 | 0.00 | 14 | 1023.0 |
| 20260508205731 | 76 | 240 | 6.1 | 16.5 | 0.00 | 0.00 | 0.00 | 14 | 1023.2 |
| 20260508205444 | 76 | 301 | 5.2 | 16.5 | 0.00 | 0.00 | 0.00 | 14 | 1023.2 |
| 20260508204948 | 76 | 304 | 3.5 | 12.2 | 0.00 | 0.00 | 0.00 | 14 | 1023.3 |
| 20260508204224 | 76 | 269 | 4.3 | 12.2 | 0.00 | 0.00 | 0.00 | 14 | 1023.4 |
| 20260508203722 | 76 | 217 | 6.1 | 15.6 | 0.00 | 0.00 | 0.00 | 14 | 1023.4 |
| 20260508203219 | 76 | 252 | 6.1 | 15.6 | 0.00 | 0.00 | 0.00 | 15 | 1023.5 |
| 20260508202719 | 76 | 0 | 6.1 | 11.3 | 0.00 | 0.00 | 0.00 | 15 | 1023.5 |
| 20260508202220 | 75 | 328 | 5.2 | 11.3 | 0.00 | 0.00 | 0.00 | 15 | 1023.7 |
| 20260508201720 | 75 | 250 | 5.2 | 11.3 | 0.00 | 0.00 | 0.00 | 15 | 1023.7 |
| 20260508201220 | 75 | 279 | 5.2 | 11.3 | 0.00 | 0.00 | 0.00 | 15 | 1023.8 |
| 20260508200719 | 75 | 279 | 5.2 | 12.2 | 0.00 | 0.00 | 0.00 | 16 | 1023.8 |
| 20260508200439 | 75 | 15 | 5.2 | 12.2 | 0.00 | 0.00 | 0.00 | 16 | 1023.8 |
| 20260508195720 | 75 | 325 | 5.2 | 11.3 | 0.00 | 0.00 | 0.00 | 16 | 1023.9 |
| 20260508195217 | 74 | 337 | 6.1 | 11.3 | 0.00 | 0.00 | 0.00 | 15 | 1023.9 |
| 20260508194716 | 74 | 5 | 7.0 | 13.0 | 0.00 | 0.00 | 0.00 | 16 | 1024.0 |
| 20260508194216 | 74 | 14 | 5.2 | 13.9 | 0.00 | 0.00 | 0.00 | 17 | 1024.0 |
| 20260508193715 | 73 | 355 | 4.3 | 13.9 | 0.00 | 0.00 | 0.00 | 17 | 1024.2 |
| 20260508193216 | 73 | 16 | 3.5 | 10.4 | 0.00 | 0.00 | 0.00 | 17 | 1024.0 |
| 20260508192715 | 72 | 342 | 4.3 | 11.3 | 0.00 | 0.00 | 0.00 | 17 | 1024.2 |
| 20260508192217 | 72 | 315 | 6.1 | 14.8 | 0.00 | 0.00 | 0.00 | 17 | 1024.2 |
| 20260508191715 | 72 | 327 | 6.1 | 14.8 | 0.00 | 0.00 | 0.00 | 17 | 1024.3 |
| 20260508191216 | 72 | 51 | 7.0 | 14.8 | 0.00 | 0.00 | 0.00 | 17 | 1024.3 |
| 20260508190716 | 72 | 5 | 5.2 | 14.8 | 0.00 | 0.00 | 0.00 | 17 | 1024.3 |
| 20260508190216 | 71 | 61 | 5.2 | 13.9 | 0.00 | 0.00 | 0.00 | 18 | 1024.3 |
| 20260508185715 | 71 | 0 | 7.8 | 17.4 | 0.00 | 0.00 | 0.00 | 18 | 1024.4 |
| 20260508185436 | 71 | 333 | 7.8 | 17.4 | 0.00 | 0.00 | 0.00 | 17 | 1024.4 |
| 20260508184715 | 71 | 320 | 7.8 | 15.6 | 0.00 | 0.00 | 0.00 | 18 | 1024.3 |
| 20260508184215 | 70 | 326 | 7.8 | 15.6 | 0.00 | 0.00 | 0.00 | 18 | 1024.4 |
| 20260508183714 | 70 | 336 | 7.0 | 13.9 | 0.00 | 0.00 | 0.00 | 18 | 1024.4 |
| 20260508183436 | 70 | 314 | 7.0 | 13.9 | 0.00 | 0.00 | 0.00 | 18 | 1024.5 |
| 20260508182713 | 69 | 13 | 5.2 | 11.3 | 0.00 | 0.00 | 0.00 | 20 | 1024.5 |
| 20260508182430 | 69 | 29 | 7.0 | 17.4 | 0.00 | 0.00 | 0.00 | 19 | 1024.8 |
| 20260508181709 | 69 | 315 | 6.1 | 17.4 | 0.00 | 0.00 | 0.00 | 19 | 1024.8 |
| 20260508181431 | 69 | 298 | 5.2 | 13.0 | 0.00 | 0.00 | 0.00 | 19 | 1024.8 |
| 20260508180708 | 69 | 349 | 7.0 | 15.6 | 0.00 | 0.00 | 0.00 | 19 | 1024.9 |
| 20260508180208 | 69 | 9 | 7.0 | 15.6 | 0.00 | 0.00 | 0.00 | 19 | 1024.9 |
| 20260508175707 | 69 | 20 | 6.1 | 13.0 | 0.00 | 0.00 | 0.00 | 19 | 1025.0 |
| 20260508175208 | 68 | 17 | 7.0 | 15.6 | 0.00 | 0.00 | 0.00 | 20 | 1025.2 |
| 20260508174707 | 68 | 355 | 7.8 | 15.6 | 0.00 | 0.00 | 0.00 | 20 | 1025.3 |
| 20260508174204 | 67 | 26 | 7.0 | 13.9 | 0.00 | 0.00 | 0.00 | 20 | 1025.3 |
| 20260508173927 | 67 | 308 | 6.1 | 13.0 | 0.00 | 0.00 | 0.00 | 20 | 1025.3 |
| 20260508173204 | 67 | 303 | 7.0 | 14.8 | 0.00 | 0.00 | 0.00 | 21 | 1025.3 |
| 20260508172705 | 67 | 17 | 6.1 | 14.8 | 0.00 | 0.00 | 0.00 | 22 | 1025.4 |
| 20260508172201 | 66 | 15 | 6.1 | 13.0 | 0.00 | 0.00 | 0.00 | 23 | 1025.3 |
| 20260508171659 | 66 | 304 | 7.0 | 13.0 | 0.00 | 0.00 | 0.00 | 22 | 1025.3 |
| 20260508171157 | 66 | 327 | 6.1 | 13.0 | 0.00 | 0.00 | 0.00 | 22 | 1025.4 |
| 20260508170656 | 66 | 294 | 5.2 | 12.2 | 0.00 | 0.00 | 0.00 | 22 | 1025.3 |
| 20260508170154 | 65 | 302 | 6.1 | 14.8 | 0.00 | 0.00 | 0.00 | 23 | 1025.5 |
| 20260508170140 | 65 | 26 | 7.8 | 14.8 | 0.00 | 0.00 | 0.00 | 23 | 1025.5 |
| 20260508165143 | 65 | 327 | 7.8 | 15.6 | 0.00 | 0.00 | 0.00 | 23 | 1025.5 |
| 20260508164637 | 64 | 13 | 7.0 | 15.6 | 0.00 | 0.00 | 0.00 | 24 | 1025.5 |
| 20260508164352 | 64 | 342 | 7.0 | 14.8 | 0.00 | 0.00 | 0.00 | 24 | 1025.4 |
| 20260508163625 | 64 | 316 | 7.0 | 14.8 | 0.00 | 0.00 | 0.00 | 24 | 1025.4 |
| 20260508163118 | 63 | 355 | 7.0 | 14.8 | 0.00 | 0.00 | 0.00 | 25 | 1025.5 |
| 20260508162613 | 63 | 294 | 6.1 | 12.2 | 0.00 | 0.00 | 0.00 | 25 | 1025.4 |
| 20260508162328 | 62 | 279 | 7.0 | 15.6 | 0.00 | 0.00 | 0.00 | 25 | 1025.4 |
| 20260508161600 | 62 | 305 | 6.1 | 15.6 | 0.00 | 0.00 | 0.00 | 25 | 1025.4 |
| 20260508161055 | 62 | 282 | 6.1 | 13.0 | 0.00 | 0.00 | 0.00 | 25 | 1025.5 |
| 20260508160548 | 62 | 304 | 6.1 | 13.0 | 0.00 | 0.00 | 0.00 | 25 | 1025.5 |
| 20260508160043 | 61 | 28 | 5.2 | 12.2 | 0.00 | 0.00 | 0.00 | 25 | 1025.5 |
| 20260508155802 | 61 | 0 | 6.1 | 12.2 | 0.00 | 0.00 | 0.00 | 26 | 1025.5 |
| 20260508155252 | 60 | 5 | 5.2 | 10.4 | 0.00 | 0.00 | 0.00 | 26 | 1025.5 |
| 20260508154525 | 60 | 18 | 5.2 | 10.4 | 0.00 | 0.00 | 0.00 | 26 | 1025.4 |
| 20260508154240 | 60 | 323 | 5.2 | 12.2 | 0.00 | 0.00 | 0.00 | 27 | 1025.4 |
| 20260508153513 | 59 | 0 | 5.2 | 12.2 | 0.00 | 0.00 | 0.00 | 28 | 1025.4 |
| 20260508153007 | 58 | 343 | 5.2 | 9.6 | 0.00 | 0.00 | 0.00 | 28 | 1025.4 |
| 20260508152500 | 58 | 298 | 5.2 | 9.6 | 0.00 | 0.00 | 0.00 | 29 | 1025.4 |
| 20260508151955 | 57 | 313 | 4.3 | 8.7 | 0.00 | 0.00 | 0.00 | 30 | 1025.4 |
| 20260508151449 | 57 | 321 | 4.3 | 9.6 | 0.00 | 0.00 | 0.00 | 30 | 1025.4 |
| 20260508150943 | 56 | 317 | 4.3 | 10.4 | 0.00 | 0.00 | 0.00 | 31 | 1025.4 |
| 20260508150437 | 55 | 348 | 3.5 | 10.4 | 0.00 | 0.00 | 0.00 | 32 | 1025.4 |
| 20260508145931 | 54 | 337 | 4.3 | 10.4 | 0.00 | 0.00 | 0.00 | 33 | 1025.4 |
| 20260508145424 | 53 | 5 | 5.2 | 10.4 | 0.00 | 0.00 | 0.00 | 34 | 1025.3 |
| 20260508144919 | 52 | 5 | 6.1 | 11.3 | 0.00 | 0.00 | 0.00 | 35 | 1025.3 |
| 20260508144413 | 51 | 12 | 6.1 | 11.3 | 0.00 | 0.00 | 0.00 | 37 | 1025.3 |
| 20260508143907 | 51 | 10 | 5.2 | 9.6 | 0.00 | 0.00 | 0.00 | 38 | 1025.3 |
| 20260508143400 | 50 | 346 | 4.3 | 8.7 | 0.00 | 0.00 | 0.00 | 38 | 1025.2 |
| 20260508142855 | 49 | 327 | 4.3 | 8.7 | 0.00 | 0.00 | 0.00 | 39 | 1025.3 |
| 20260508142821 | 48 | 49 | 5.2 | 8.7 | 0.00 | 0.00 | 0.00 | 39 | 1025.3 |
| 20260508142438 | 49 | 0 | 5.2 | 8.7 | 0.00 | 0.00 | 0.00 | 40 | 1025.4 |
| 20260508141337 | 48 | 355 | 4.3 | 7.8 | 0.00 | 0.00 | 0.00 | 39 | 1025.3 |
| 20260508140831 | 48 | 25 | 4.3 | 7.8 | 0.00 | 0.00 | 0.00 | 39 | 1025.3 |
| 20260508140325 | 47 | 30 | 5.2 | 8.7 | 0.00 | 0.00 | 0.00 | 38 | 1025.3 |
| 20260508135819 | 47 | 28 | 6.1 | 9.6 | 0.00 | 0.00 | 0.00 | 38 | 1025.3 |
| 20260508135312 | 47 | 11 | 7.0 | 10.4 | 0.00 | 0.00 | 0.00 | 38 | 1025.3 |
| 20260508134806 | 47 | 355 | 7.0 | 10.4 | 0.00 | 0.00 | 0.00 | 38 | 1025.3 |
| 20260508134525 | 46 | 16 | 6.1 | 10.4 | 0.00 | 0.00 | 0.00 | 39 | 1025.3 |
| 20260508133755 | 46 | 28 | 5.2 | 10.4 | 0.00 | 0.00 | 0.00 | 40 | 1025.2 |
| 20260508133249 | 46 | 5 | 4.3 | 8.7 | 0.00 | 0.00 | 0.00 | 41 | 1025.0 |
| 20260508133008 | 46 | 5 | 4.3 | 7.8 | 0.00 | 0.00 | 0.00 | 40 | 1025.0 |
| 20260508132236 | 46 | 17 | 4.3 | 7.8 | 0.00 | 0.00 | 0.00 | 40 | 1024.9 |
| 20260508131731 | 46 | 13 | 5.2 | 7.8 | 0.00 | 0.00 | 0.00 | 40 | 1024.8 |
| 20260508131226 | 46 | 19 | 5.2 | 7.8 | 0.00 | 0.00 | 0.00 | 39 | 1024.8 |
| 20260508130942 | 46 | 24 | 4.3 | 7.0 | 0.00 | 0.00 | 0.00 | 39 | 1024.7 |
| 20260508130213 | 46 | 15 | 5.2 | 7.0 | 0.00 | 0.00 | 0.00 | 38 | 1024.5 |
| 20260508125706 | 46 | 20 | 5.2 | 7.0 | 0.00 | 0.00 | 0.00 | 38 | 1024.4 |
| 20260508125201 | 46 | 31 | 5.2 | 7.0 | 0.00 | 0.00 | 0.00 | 38 | 1024.3 |
| 20260508124655 | 47 | 23 | 5.2 | 7.8 | 0.00 | 0.00 | 0.00 | 37 | 1024.3 |
| 20260508124413 | 47 | 24 | 5.2 | 7.8 | 0.00 | 0.00 | 0.00 | 37 | 1024.3 |
| 20260508123642 | 47 | 15 | 4.3 | 7.0 | 0.00 | 0.00 | 0.00 | 37 | 1024.3 |
| 20260508123137 | 47 | 29 | 4.3 | 7.0 | 0.00 | 0.00 | 0.00 | 37 | 1024.3 |
| 20260508122850 | 47 | 43 | 4.3 | 8.7 | 0.00 | 0.00 | 0.00 | 36 | 1024.3 |
| 20260508122355 | 47 | 82 | 4.3 | 8.7 | 0.00 | 0.00 | 0.00 | 36 | 1024.3 |
| 20260508121631 | 47 | 22 | 5.2 | 7.8 | 0.00 | 0.00 | 0.00 | 36 | 1024.3 |
| 20260508121130 | 47 | 16 | 6.1 | 11.3 | 0.00 | 0.00 | 0.00 | 36 | 1024.4 |
| 20260508120631 | 47 | 36 | 5.2 | 11.3 | 0.00 | 0.00 | 0.00 | 36 | 1024.3 |
| 20260508120131 | 48 | 42 | 4.3 | 8.7 | 0.00 | 0.00 | 0.00 | 35 | 1024.2 |
| 20260508115633 | 48 | 38 | 3.5 | 8.7 | 0.00 | 0.00 | 0.00 | 35 | 1024.2 |
| 20260508115356 | 48 | 44 | 2.6 | 7.0 | 0.00 | 0.00 | 0.00 | 35 | 1024.2 |
| 20260508114630 | 48 | 5 | 3.5 | 7.0 | 0.00 | 0.00 | 0.00 | 35 | 1024.0 |
| 20260508114130 | 48 | 42 | 4.3 | 8.7 | 0.00 | 0.00 | 0.00 | 35 | 1024.0 |
| 20260508113631 | 49 | 18 | 5.2 | 12.2 | 0.00 | 0.00 | 0.00 | 34 | 1024.0 |
| 20260508113132 | 49 | 32 | 5.2 | 12.2 | 0.00 | 0.00 | 0.00 | 34 | 1023.9 |
| 20260508112631 | 49 | 23 | 4.3 | 8.7 | 0.00 | 0.00 | 0.00 | 34 | 1023.9 |
| 20260508112131 | 49 | 27 | 4.3 | 7.8 | 0.00 | 0.00 | 0.00 | 34 | 1023.9 |
| 20260508111630 | 49 | 62 | 4.3 | 7.8 | 0.00 | 0.00 | 0.00 | 34 | 1023.9 |
| 20260508111130 | 49 | 42 | 5.2 | 7.8 | 0.00 | 0.00 | 0.00 | 34 | 1023.8 |
| 20260508110631 | 49 | 53 | 4.3 | 7.8 | 0.00 | 0.00 | 0.00 | 34 | 1023.8 |
| 20260508110127 | 49 | 24 | 4.3 | 8.7 | 0.00 | 0.00 | 0.00 | 34 | 1023.9 |
| 20260508105627 | 49 | 53 | 5.2 | 10.4 | 0.00 | 0.00 | 0.00 | 34 | 1023.8 |
| 20260508105127 | 49 | 0 | 5.2 | 10.4 | 0.00 | 0.00 | 0.00 | 34 | 1023.8 |
| 20260508104626 | 49 | 37 | 4.3 | 7.8 | 0.00 | 0.00 | 0.00 | 33 | 1023.7 |
| 20260508104127 | 49 | 76 | 4.3 | 9.6 | 0.00 | 0.00 | 0.00 | 33 | 1023.5 |
| 20260508103845 | 49 | 355 | 5.2 | 9.6 | 0.00 | 0.00 | 0.00 | 33 | 1023.5 |
| 20260508103126 | 49 | 19 | 6.1 | 10.4 | 0.00 | 0.00 | 0.00 | 33 | 1023.4 |
| 20260508102627 | 49 | 342 | 6.1 | 10.4 | 0.00 | 0.00 | 0.00 | 33 | 1023.3 |
| 20260508102340 | 49 | 50 | 6.1 | 10.4 | 0.00 | 0.00 | 0.00 | 33 | 1023.3 |
| 20260508102224 | 49 | 58 | 6.1 | 10.4 | 0.00 | 0.00 | 0.00 | 33 | 1023.3 |
| 20260508101345 | 48 | 32 | 5.2 | 11.3 | 0.00 | 0.00 | 0.00 | 33 | 1023.3 |
| 20260508100622 | 48 | 44 | 5.2 | 11.3 | 0.00 | 0.00 | 0.00 | 32 | 1023.3 |
| 20260508100123 | 48 | 42 | 5.2 | 12.2 | 0.00 | 0.00 | 0.00 | 32 | 1023.2 |
| 20260508095622 | 47 | 66 | 5.2 | 12.2 | 0.00 | 0.00 | 0.00 | 32 | 1023.2 |
| 20260508095123 | 47 | 48 | 4.3 | 9.6 | 0.00 | 0.00 | 0.00 | 32 | 1023.2 |
| 20260508094623 | 47 | 44 | 4.3 | 7.8 | 0.00 | 0.00 | 0.00 | 32 | 1023.3 |
| 20260508094124 | 47 | 35 | 4.3 | 7.8 | 0.00 | 0.00 | 0.00 | 32 | 1023.4 |
| 20260508093624 | 46 | 51 | 4.3 | 8.7 | 0.00 | 0.00 | 0.00 | 31 | 1023.3 |
| 20260508093124 | 46 | 69 | 4.3 | 8.7 | 0.00 | 0.00 | 0.00 | 31 | 1023.4 |
| 20260508092623 | 46 | 42 | 4.3 | 7.8 | 0.00 | 0.00 | 0.00 | 31 | 1023.4 |
| 20260508092120 | 46 | 63 | 4.3 | 7.8 | 0.00 | 0.00 | 0.00 | 30 | 1023.4 |
| 20260508091621 | 46 | 78 | 3.5 | 7.0 | 0.00 | 0.00 | 0.00 | 29 | 1023.4 |
| 20260508091120 | 46 | 68 | 3.5 | 6.1 | 0.00 | 0.00 | 0.00 | 28 | 1023.5 |
| 20260508090849 | 46 | 87 | 3.5 | 6.1 | 0.00 | 0.00 | 0.00 | 27 | 1023.5 |
| 20260508090120 | 46 | 79 | 4.3 | 7.0 | 0.00 | 0.00 | 0.00 | 26 | 1023.5 |
| 20260508085621 | 46 | 98 | 4.3 | 7.0 | 0.00 | 0.00 | 0.00 | 27 | 1023.8 |
| 20260508085121 | 46 | 88 | 4.3 | 7.0 | 0.00 | 0.00 | 0.00 | 26 | 1023.7 |
| 20260508084620 | 46 | 103 | 4.3 | 7.0 | 0.00 | 0.00 | 0.00 | 25 | 1023.7 |
| 20260508084121 | 46 | 82 | 4.3 | 7.0 | 0.00 | 0.00 | 0.00 | 25 | 1023.8 |
| 20260508083620 | 46 | 98 | 4.3 | 7.0 | 0.00 | 0.00 | 0.00 | 25 | 1023.8 |
| 20260508083119 | 46 | 95 | 3.5 | 6.1 | 0.00 | 0.00 | 0.00 | 25 | 1023.8 |
| 20260508082618 | 46 | 91 | 3.5 | 6.1 | 0.00 | 0.00 | 0.00 | 25 | 1023.8 |
| 20260508082118 | 46 | 88 | 3.5 | 6.1 | 0.00 | 0.00 | 0.00 | 26 | 1023.9 |
| 20260508081618 | 46 | 94 | 3.5 | 6.1 | 0.00 | 0.00 | 0.00 | 25 | 1023.9 |
| 20260508081119 | 46 | 99 | 3.5 | 6.1 | 0.00 | 0.00 | 0.00 | 25 | 1023.9 |
| 20260508080619 | 46 | 90 | 3.5 | 7.0 | 0.00 | 0.00 | 0.00 | 25 | 1023.9 |
| 20260508080118 | 46 | 83 | 4.3 | 7.0 | 0.00 | 0.00 | 0.00 | 25 | 1023.9 |
| 20260508075838 | 46 | 98 | 4.3 | 7.0 | 0.00 | 0.00 | 0.00 | 25 | 1023.9 |
| 20260508075119 | 46 | 95 | 4.3 | 7.0 | 0.00 | 0.00 | 0.00 | 25 | 1023.9 |
| 20260508074619 | 46 | 93 | 4.3 | 7.0 | 0.00 | 0.00 | 0.00 | 25 | 1024.0 |
| 20260508074119 | 46 | 92 | 4.3 | 7.0 | 0.00 | 0.00 | 0.00 | 25 | 1024.2 |
| 20260508073618 | 46 | 101 | 4.3 | 7.0 | 0.00 | 0.00 | 0.00 | 25 | 1024.2 |
| 20260508073118 | 46 | 97 | 4.3 | 7.0 | 0.00 | 0.00 | 0.00 | 25 | 1024.2 |
| 20260508072836 | 46 | 84 | 5.2 | 7.8 | 0.00 | 0.00 | 0.00 | 25 | 1024.2 |
| 20260508072115 | 46 | 95 | 5.2 | 7.8 | 0.00 | 0.00 | 0.00 | 25 | 1024.2 |
| 20260508071616 | 46 | 78 | 5.2 | 8.7 | 0.00 | 0.00 | 0.00 | 25 | 1024.2 |
| 20260508071114 | 46 | 86 | 6.1 | 8.7 | 0.00 | 0.00 | 0.00 | 25 | 1024.2 |
| 20260508070616 | 46 | 90 | 6.1 | 8.7 | 0.00 | 0.00 | 0.00 | 24 | 1024.2 |
| 20260508070114 | 46 | 102 | 6.1 | 8.7 | 0.00 | 0.00 | 0.00 | 24 | 1024.2 |
| 20260508065612 | 47 | 107 | 5.2 | 7.8 | 0.00 | 0.00 | 0.00 | 24 | 1024.2 |
| 20260508065112 | 47 | 94 | 5.2 | 7.8 | 0.00 | 0.00 | 0.00 | 24 | 1024.2 |
| 20260508064612 | 47 | 107 | 6.1 | 8.7 | 0.00 | 0.00 | 0.00 | 24 | 1024.3 |
| 20260508064112 | 46 | 99 | 6.1 | 8.7 | 0.00 | 0.00 | 0.00 | 25 | 1024.3 |
| 20260508063614 | 46 | 115 | 6.1 | 8.7 | 0.00 | 0.00 | 0.00 | 25 | 1024.2 |
| 20260508063557 | 47 | 94 | 5.2 | 8.7 | 0.00 | 0.00 | 0.00 | 25 | 1024.2 |
| 20260508062610 | 47 | 115 | 5.2 | 8.7 | 0.00 | 0.00 | 0.00 | 25 | 1024.2 |
| 20260508062328 | 47 | 103 | 5.2 | 7.8 | 0.00 | 0.00 | 0.00 | 25 | 1024.2 |
| 20260508061610 | 47 | 99 | 5.2 | 7.8 | 0.00 | 0.00 | 0.00 | 25 | 1024.2 |
| 20260508061110 | 47 | 114 | 5.2 | 8.7 | 0.00 | 0.00 | 0.00 | 25 | 1024.2 |
| 20260508060830 | 47 | 115 | 5.2 | 8.7 | 0.00 | 0.00 | 0.00 | 25 | 1024.0 |
| 20260508060112 | 47 | 111 | 5.2 | 8.7 | 0.00 | 0.00 | 0.00 | 25 | 1024.0 |
| 20260508055610 | 47 | 84 | 5.2 | 8.7 | 0.00 | 0.00 | 0.00 | 25 | 1024.2 |
| 20260508055331 | 47 | 107 | 5.2 | 7.8 | 0.00 | 0.00 | 0.00 | 24 | 1024.2 |
| 20260508054830 | 47 | 96 | 6.1 | 7.8 | 0.00 | 0.00 | 0.00 | 25 | 1024.2 |
| 20260508054107 | 47 | 107 | 5.2 | 8.7 | 0.00 | 0.00 | 0.00 | 25 | 1024.3 |
| 20260508053607 | 47 | 100 | 5.2 | 8.7 | 0.00 | 0.00 | 0.00 | 25 | 1024.3 |
| 20260508053330 | 48 | 93 | 5.2 | 7.8 | 0.00 | 0.00 | 0.00 | 25 | 1024.2 |
| 20260508052824 | 48 | 94 | 5.2 | 7.8 | 0.00 | 0.00 | 0.00 | 24 | 1024.3 |
| 20260508052109 | 48 | 102 | 5.2 | 7.8 | 0.00 | 0.00 | 0.00 | 24 | 1024.2 |
| 20260508051608 | 48 | 90 | 5.2 | 7.0 | 0.00 | 0.00 | 0.00 | 23 | 1024.3 |
| 20260508051108 | 48 | 91 | 5.2 | 7.0 | 0.00 | 0.00 | 0.00 | 23 | 1024.3 |
| 20260508050603 | 49 | 88 | 5.2 | 7.8 | 0.00 | 0.00 | 0.00 | 23 | 1024.3 |
| 20260508050103 | 49 | 94 | 5.2 | 7.8 | 0.00 | 0.00 | 0.00 | 23 | 1024.3 |
| 20260508045603 | 49 | 88 | 5.2 | 8.7 | 0.00 | 0.00 | 0.00 | 22 | 1024.3 |
| 20260508045103 | 49 | 69 | 6.1 | 8.7 | 0.00 | 0.00 | 0.00 | 22 | 1024.2 |
| 20260508044832 | 50 | 84 | 5.2 | 7.8 | 0.00 | 0.00 | 0.00 | 22 | 1024.3 |
| 20260508044103 | 50 | 78 | 4.3 | 7.0 | 0.00 | 0.00 | 0.00 | 22 | 1024.3 |
| 20260508043604 | 50 | 102 | 4.3 | 7.0 | 0.00 | 0.00 | 0.00 | 22 | 1024.3 |
| 20260508043307 | 51 | 100 | 3.5 | 6.1 | 0.00 | 0.00 | 0.00 | 20 | 1024.4 |
| 20260508043149 | 51 | 106 | 3.5 | 7.0 | 0.00 | 0.00 | 0.00 | 20 | 1024.4 |
| 20260508042329 | 51 | 93 | 3.5 | 7.0 | 0.00 | 0.00 | 0.00 | 20 | 1024.4 |
| 20260508041603 | 51 | 83 | 3.5 | 7.0 | 0.00 | 0.00 | 0.00 | 19 | 1024.4 |
| 20260508041102 | 52 | 96 | 3.5 | 6.1 | 0.00 | 0.00 | 0.00 | 19 | 1024.4 |
| 20260508040603 | 52 | 86 | 1.7 | 5.2 | 0.00 | 0.00 | 0.00 | 19 | 1024.4 |
| 20260508035602 | 53 | 136 | 1.7 | 4.3 | 0.00 | 0.00 | 0.00 | 18 | 1024.3 |
| 20260508035325 | 53 | 126 | 2.6 | 5.2 | 0.00 | 0.00 | 0.00 | 18 | 1024.3 |
| 20260508034602 | 53 | 142 | 1.7 | 5.2 | 0.00 | 0.00 | 0.00 | 17 | 1024.3 |
| 20260508034544 | 54 | 95 | 1.7 | 6.1 | 0.00 | 0.00 | 0.00 | 17 | 1024.3 |
| 20260508033556 | 54 | 126 | 2.6 | 6.1 | 0.00 | 0.00 | 0.00 | 16 | 1024.2 |
| 20260508033047 | 55 | 128 | 1.7 | 5.2 | 0.00 | 0.00 | 0.00 | 17 | 1024.0 |
| 20260508032544 | 55 | 148 | 2.6 | 6.1 | 0.00 | 0.00 | 0.00 | 16 | 1023.9 |
| 20260508032259 | 55 | 163 | 2.6 | 6.1 | 0.00 | 0.00 | 0.00 | 16 | 1023.7 |
| 20260508031531 | 56 | 169 | 2.6 | 7.0 | 0.00 | 0.00 | 0.00 | 15 | 1023.7 |
| 20260508031247 | 56 | 174 | 2.6 | 7.0 | 0.00 | 0.00 | 0.00 | 15 | 1023.5 |
| 20260508031002 | 56 | 146 | 3.5 | 7.8 | 0.00 | 0.00 | 0.00 | 15 | 1023.5 |
| 20260508030511 | 56 | 162 | 3.5 | 7.8 | 0.00 | 0.00 | 0.00 | 15 | 1023.4 |
| 20260508025519 | 57 | 197 | 3.5 | 7.0 | 0.00 | 0.00 | 0.00 | 14 | 1023.4 |
| 20260508025019 | 57 | 179 | 3.5 | 7.0 | 0.00 | 0.00 | 0.00 | 14 | 1023.3 |
| 20260508024519 | 58 | 159 | 3.5 | 7.0 | 0.00 | 0.00 | 0.00 | 15 | 1023.3 |
| 20260508024020 | 58 | 136 | 3.5 | 7.8 | 0.00 | 0.00 | 0.00 | 14 | 1023.3 |
| 20260508023517 | 58 | 178 | 4.3 | 8.7 | 0.00 | 0.00 | 0.00 | 14 | 1023.2 |
| 20260508023015 | 59 | 175 | 4.3 | 8.7 | 0.00 | 0.00 | 0.00 | 14 | 1023.2 |
| 20260508022514 | 59 | 178 | 3.5 | 7.8 | 0.00 | 0.00 | 0.00 | 14 | 1023.2 |
| 20260508022235 | 60 | 186 | 4.3 | 7.0 | 0.00 | 0.00 | 0.00 | 14 | 1023.2 |
| 20260508021514 | 60 | 173 | 5.2 | 9.6 | 0.00 | 0.00 | 0.00 | 14 | 1023.0 |
| 20260508021014 | 60 | 196 | 6.1 | 11.3 | 0.00 | 0.00 | 0.00 | 13 | 1023.0 |
| 20260508020515 | 61 | 191 | 6.1 | 11.3 | 0.00 | 0.00 | 0.00 | 13 | 1023.0 |
| 20260508020239 | 61 | 209 | 5.2 | 10.4 | 0.00 | 0.00 | 0.00 | 13 | 1022.9 |
| 20260508015515 | 62 | 227 | 4.3 | 9.6 | 0.00 | 0.00 | 0.00 | 14 | 1022.9 |
| 20260508015015 | 63 | 172 | 5.2 | 11.3 | 0.00 | 0.00 | 0.00 | 13 | 1022.9 |
| 20260508014514 | 63 | 199 | 6.1 | 11.3 | 0.00 | 0.00 | 0.00 | 13 | 1022.9 |
| 20260508014011 | 64 | 197 | 5.2 | 10.4 | 0.00 | 0.00 | 0.00 | 13 | 1022.9 |
| 20260508013510 | 64 | 197 | 5.2 | 9.6 | 0.00 | 0.00 | 0.00 | 13 | 1022.9 |
| 20260508013004 | 65 | 202 | 5.2 | 10.4 | 0.00 | 0.00 | 0.00 | 13 | 1022.8 |
| 20260508012458 | 65 | 196 | 5.2 | 13.0 | 0.00 | 0.00 | 0.00 | 13 | 1022.8 |
| 20260508012218 | 65 | 224 | 5.2 | 12.2 | 0.00 | 0.00 | 0.00 | 13 | 1022.8 |
| 20260508011705 | 66 | 213 | 6.1 | 12.2 | 0.00 | 0.00 | 0.00 | 12 | 1022.6 |
| 20260508010940 | 66 | 246 | 6.1 | 10.4 | 0.00 | 0.00 | 0.00 | 12 | 1022.6 |
| 20260508010434 | 66 | 199 | 5.2 | 13.0 | 0.00 | 0.00 | 0.00 | 12 | 1022.6 |
| 20260508010144 | 67 | 266 | 4.3 | 13.0 | 0.00 | 0.00 | 0.00 | 12 | 1022.6 |